sat.trackr.live / text

‹ back to catalog

STARLINK-11472 [DTC]

NORAD 62067 · 2024-217L

PAYLOAD ACTIVE UNKNOWN

§ Identity

Operator
Country
US
Launch date
2024-11-24
Launch site
AFWTR
Launch vehicle
Mass (kg)
RCS (m²)

Purposes: comms

External: N2YO · Heavens-Above · Gunter

§ Orbital elements

Epoch: 2026-05-25T02:59:35.294784Z

Period
91.73 min
Inclination
53.1567°
Eccentricity
0.0000892
Mean motion
15.69778605 rev/d
Perigee alt
358.9 km
Apogee alt
360.1 km
Semi-major
6,737.7 km
B*
1.8668e-3
RAAN
54.8151°
Arg perigee
85.8299°
Mean anomaly
274.2821°
Rev number
8,710

§ Raw data

STARLINK-11472 [DTC]1 62067U 24217L   26145.12471406  .00232695  00000+0  18668-2 0  99972 62067  53.1567  54.8151 0000892  85.8299 274.2821 15.69778605 87100

JSON: /api/v1/satellites/62067 · /tle

For live sub-satellite position, see the globe view (requires WebGL).

§ Visibility from observer

Set your observer location to see the next 7 days of passes ≥ 10°. The values pass through the URL so the page stays shareable.

No JS? Fill the form by hand. The geolocation button needs JavaScript.